Regional Weather Roundup
Issued by NWS

Home | Current Version | Previous Version | Graphics & Text | Print | Product List | Glossary On
Versions: 1 2 3 4 5 6 7 8 9 10 11 12 13 14 15 16 17 18 19 20 21 22 23 24 25 26 27 28 29 30 31 32 33 34 35 36 37 38 39 40 41 42 43 44 45 46 47 48 49 50
000
ASUS43 KMPX 010401
RWRMN
WEATHER ROUNDUP FOR MINNESOTA
NATIONAL WEATHER SERVICE TWIN CITIES/CHANHASSEN MN
1100 PM CDT MON AUG 31 2015


NOTE: "FAIR" INDICATES FEW OR NO CLOUDS BELOW 12,000 FEET WITH NO
SIGNIFICANT WEATHER AND/OR OBSTRUCTIONS TO VISIBILITY. N/A MEANS
CURRENT SKY AND/OR WEATHER CONDITIONS ARE NOT AVAILABLE.

MNZ060>063-068>070-010500-
   Twin Cities Metro

CITY           SKY/WX    TMP DP  RH WIND       PRES   REMARKS
TWIN CITIES    MOCLDY    78  70  76 S10       29.90S
ST PAUL        PTCLDY    74  72  93 SE7       29.90F FOG
CRYSTAL        PTCLDY    77  70  79 S5        29.89S
BLAINE         PTCLDY    73  72  94 S5        29.90S
LAKEVILLE      CLEAR     72  72 100 S5        29.92S FOG
EDEN PRAIRIE   CLEAR     74  70  87 S6        29.90S
SOUTH ST PAUL  CLEAR     76  71  86 S6        29.90F
LAKE ELMO      FAIR      73  72  94 S7        29.92S
$$
MNZ001>005-007-008-013>017-022>024-027-028-010500-
   Northwest Minnesota

CITY           SKY/WX    TMP DP  RH WIND       PRES   REMARKS
BEMIDJI        CLOUDY    68  66  93 CALM      29.87R
HALLOCK        CLEAR     59  48  67 SW3       29.82R
ROSEAU         MOCLDY    64  57  77 SW8       29.83R
WARROAD        MOCLDY    64  61  88 SW7       29.83R
THIEF RVR FALL CLOUDY   N/A N/A N/A SW3       29.85R
CROOKSTON      MOCLDY    64  55  72 W6        29.85S
FOSSTON        CLOUDY    61  61 100 S5        29.88R
DETROIT LAKES  MOCLDY    66  64  94 CALM      29.90R
MOORHEAD       MOCLDY    64  64 100 CALM      29.88R
PARK RAPIDS    CLOUDY    69  66  90 CALM      29.87S
MAHNOMEN       FAIR      64  62  92 W3        29.87S
$$
MNZ006-009>011-018-025>026-010500-
   North Central Minnesota

CITY           SKY/WX    TMP DP  RH WIND       PRES   REMARKS
BAUDETTE       CLOUDY    65  63  93 SW7       29.83R
FLAG ISLAND    PTCLDY    66  63  88 SW9       29.79R
INTL FALLS     CLOUDY    65  63  93 SW5       29.84R
WASKISH        CLOUDY    63  61  94 CALM      29.86R FOG
BIG FORK       CLOUDY    66  64  94 CALM      29.85F FOG
LONGVILLE      CLOUDY    68  66  94 CALM      29.86R FOG
GRAND RAPIDS     N/A     72  66  83 S7        29.86F
CRANE LAKE     MOCLDY    63  63 100 S1        29.86S
ORR            MOCLDY    66  63  88 CALM      29.84R
COOK           MOCLDY    70  66  88 CALM      29.86S
WALKER         FAIR      68  66  95 CALM      29.87R
$$
MNZ012-019>021-037-010500-
   Northeast Minnesota

CITY           SKY/WX    TMP DP  RH WIND       PRES   REMARKS
DULUTH         MOCLDY    73  68  84 SW8       29.88F
ELY            MOCLDY    72  66  83 SW6       29.87S
HIBBING        MOCLDY    72  67  84 CALM      29.86S
EVELETH        MOCLDY    72  68  88 SW5       29.88S
DULUTH HARBOR  PTCLDY    73  70  88 W3        29.86S
TWO HARBORS    PTCLDY    73  68  83 CALM      29.86S HAZE
SILVER BAY     PTCLDY    72  68  88 CALM      29.85F
GRAND MARAIS     N/A     59  57  93 CALM      29.85S
G MARAIS ARPRT MOCLDY    70  63  78 S8        29.91S
$$
MNZ029>031-032-039>041-046>048-054>057-064-010500-
   West Central Minnesota

CITY           SKY/WX    TMP DP  RH WIND       PRES   REMARKS
FERGUS FALLS   MOCLDY    70  70 100 CALM      29.87S
WHEATON        MOCLDY    66  64  94 NW5       29.89S
MORRIS         MOCLDY    70  66  88 NW3       29.88R
ALEXANDRIA     CLOUDY    69  66  90 W5        29.90R
ELBOW LAKE     FAIR      69  67  94 W3        29.88S
WADENA         CLOUDY    68  66  94 CALM      29.88R
GLENWOOD       MOCLDY    70  66  88 SW3       29.89S
APPLETON       MOCLDY    70  64  83 CALM      29.87S
BENSON         MOCLDY    70  66  88 CALM      29.87S
ORTONVILLE     MOCLDY    73  66  78 N1        29.88S
MADISON        MOCLDY    70  66  88 N3        29.88R
WILLMAR        FAIR      73  68  83 CALM      29.89S
$$
MNZ033>034-036-042>043-049>051-058-059-010500-
   Central Minnesota

CITY           SKY/WX    TMP DP  RH WIND       PRES   REMARKS
ST CLOUD       PTCLDY    71  68  90 S6        29.88S
SAUK CENTRE    FAIR      70  68  93 S3        29.89R
PAYNESVILLE    PTCLDY    72  67  82 SE6       29.89S
AITKIN         PTCLDY    73  66  78 S5        29.86S
PINE RIVER     MOCLDY    70  70 100 CALM      29.90R
BRAINERD       MOCLDY    72  67  84 SW6       29.87R
STAPLES        MOCLDY    70  66  88 CALM      29.87R
LONG PRAIRIE   FAIR      70  68  94 S3        29.89R
LITTLE FALLS   PTCLDY    70  64  83 S3        29.87S
LITCHFIELD     CLEAR     73  70  88 S3        29.90S
BUFFALO        CLEAR     73  67  83 S3        29.90S
MAPLE LAKE     FAIR      71  69  92 CALM      29.90S
$$
MNZ037-044-045-052-053-010500-
   East Central Minnesota

CITY           SKY/WX    TMP DP  RH WIND       PRES   REMARKS
PRINCETON      CLEAR     73  70  88 S7        29.89S
MORA           PTCLDY    70  64  83 S3        29.90S
CAMBRIDGE      CLEAR     73  64  73 SE3       29.88S
RUSH CITY      PTCLDY    69  67  91 SE5       29.90S
MOOSE LAKE     MOCLDY    68  66  94 SW3       29.86F
HINCKLEY       FAIR      72  70  94 S3        29.89S
CLOQUET        MOCLDY    73  66  78 S5        29.88F
MCGREGOR       MOCLDY    72  68  88 S5        29.87F
$$
MNZ071>073-080-081-089-090-097-098-010500-
   Southwest Minnesota

CITY           SKY/WX    TMP DP  RH WIND       PRES   REMARKS
MONTEVIDEO     PTCLDY    73  70  88 SW6       29.89S
GRANITE FALLS  PTCLDY    72  69  91 CALM      29.89S
CANBY          PTCLDY    72  68  89 W6        29.90R
MARSHALL       PTCLDY    73  66  78 SW12      29.90S
REDWOOD FALLS  CLEAR     72  67  84 S9        29.89S
OLIVIA         CLEAR     68  64  88 S7        29.88F
PIPESTONE      CLEAR     72  68  88 S7        29.92S
WINDOM         CLEAR     72  64  78 CALM      29.93S
WORTHINGTON    CLEAR     70  64  83 S9        29.94R
JACKSON        CLEAR     70  66  88 S6        29.95R
TRACY          CLEAR     73  69  87 S9        29.90F
SLAYTON        CLEAR     68  67  98 CALM      29.94R
$$
MNZ065>067-074>077-082>085-091>093-010500-
   South Central Minnesota

CITY           SKY/WX    TMP DP  RH WIND       PRES   REMARKS
MANKATO        CLEAR     72  68  88 S6        29.92S
NEW ULM        CLEAR     70  68  94 S6        29.91S
ST JAMES       CLEAR     70  66  88 S5        29.93R
FAIRMONT       CLEAR     66  61  82 S7        29.92F
GLENCOE        CLEAR     72  70  93 S3        29.90S
FARIBAULT      CLEAR     73  70  88 S5        29.93F
OWATONNA       CLEAR     73  68  83 S6        29.94S
WASECA         CLEAR     72  68  88 S6        29.95S
ALBERT LEA     CLEAR     72  70  94 CALM      29.95F
$$
MNZ078>079-086>088-094>096-010500-
   Southeast Minnesota

CITY           SKY/WX    TMP DP  RH WIND       PRES   REMARKS
ROCHESTER      PTCLDY    73  71  93 S7        29.97S FOG
RED WING       CLEAR     73  70  88 CALM      29.92S
STANTON        CLEAR     73  69  88 CALM      29.92S
DODGE CENTER   PTCLDY    72  70  94 S6        29.96S FOG
WINONA         CLEAR     73  70  88 S3        29.95S
AUSTIN         PTCLDY    73  72  94 S3        29.95F FOG
PRESTON        CLEAR     72  69  92 S5        29.98S FOG
$$
ABBREVIATIONS USED IN REMARKS
   TC - TEMPERATURES IN CELSIUS
  WCI - WIND CHILL INDEX
   HX - HEAT INDEX
  VSB - VISIBILITY
$$


USA.gov is the U.S. government's official web portal to all federal, state and local government web resources and services.